Location: Newark
(42.8481°N, 0.4872°E)
Time: 08:59:15
(UTC+00:00)

Vanguard 2 - Pass Details

Date: 28 October 2020
Orbit: 554 x 2937 km, 32.9° (Epoch: 26 November)

Event Time Altitude Azimuth Distance (km) Brightness Sun altitude
Rises 02:19:51 0° 278° (W) 6,784 - -44.9°
Reaches altitude 10° 02:25:42 10° 267° (W) 5,749 - -44.0°
Maximum altitude 02:37:51 24° 223° (SW) 4,290 - -42.0°
Drops below altitude 10° 02:47:59 10° 176° (S) 4,695 - -40.3°
Exits shadow 02:48:16 - 175° (S) 4,731 11.4 -40.2°
Sets 02:52:11 0° 163° (SSE) 5,332 11.8 -39.6°
